QPF
0.00 0.00 0.00 0.00 0.00 0.00 0.00 0.00 0.00 0.00 0.00 0.00 0.00 0.00 0.00 0.00 0.01 0.02 0.01 0.01 0.00 0.00 0.00 0.01 0.02 0.01 0.01 0.02 0.02 0.02 0.01 0.01 0.01 0.01 0.01 0.01 0.01 0.01 0.02 0.03 0.03 0.03 0.04 0.03 0.03 0.03 0.03 0.03 0.05
0.00 0.00 0.00 0.00 0.00 0.00 0.00 0.00 0.00 0.00 0.00 0.00 0.00 0.00 0.00 0.00 0.00 0.00 0.01 0.01 0.00 0.00 0.00 0.01 0.01 0.01 0.01 0.01 0.01 0.01 0.01 0.01 0.01 0.01 0.01 0.01 0.01 0.01 0.02 0.03 0.04 0.04 0.03 0.03 0.02 0.02 0.03 0.04 0.05
0.00 0.00 0.00 0.00 0.00 0.00 0.00 0.00 0.00 0.00 0.00 0.00 0.00 0.00 0.00 0.01 0.01 0.01 0.01 0.00 0.00 0.01 0.00 0.01 0.02 0.01 0.01 0.01 0.01 0.01 0.01 0.01 0.01 0.01 0.00 0.01 0.01 0.02 0.03 0.05 0.04 0.04 0.02 0.03 0.03 0.02 0.03 0.04 0.05
0.00 0.00 0.00 0.00 0.00 0.00 0.00 0.00 0.00 0.00 0.00 0.00 0.00 0.00 0.00 0.00 0.01 0.01 0.00 0.00 0.01 0.01 0.01 0.01 0.02 0.03 0.02 0.02 0.02 0.01 0.01 0.01 0.01 0.01 0.01 0.01 0.02 0.03 0.05 0.06 0.05 0.03 0.02 0.04 0.04 0.04 0.06 0.06 0.05
0.00 0.00 0.00 0.00 0.00 0.00 0.00 0.00 0.00 0.00 0.00 0.00 0.00 0.00 0.00 0.01 0.01 0.00 0.00 0.01 0.01 0.02 0.02 0.02 0.01 0.02 0.02 0.02 0.02 0.01 0.01 0.01 0.01 0.01 0.01 0.01 0.02 0.03 0.05 0.06 0.04 0.03 0.02 0.04 0.05 0.05 0.06 0.07 0.07
0.00 0.00 0.00 0.00 0.00 0.00 0.00 0.00 0.00 0.00 0.00 0.00 0.00 0.00 0.00 0.01 0.01 0.01 0.01 0.01 0.01 0.02 0.02 0.03 0.04 0.04 0.04 0.03 0.02 0.02 0.02 0.02 0.01 0.01 0.01 0.01 0.02 0.03 0.05 0.04 0.04 0.02 0.01 0.03 0.04 0.05 0.06 0.06 0.07
0.00 0.00 0.00 0.00 0.00 0.00 0.00 0.00 0.00 0.00 0.00 0.00 0.00 0.00 0.00 0.00 0.01 0.00 0.00 0.01 0.01 0.02 0.03 0.04 0.06 0.06 0.05 0.04 0.03 0.02 0.03 0.03 0.03 0.03 0.03 0.02 0.02 0.03 0.04 0.04 0.04 0.02 0.02 0.03 0.05 0.05 0.07 0.06 0.05
0.00 0.00 0.00 0.00 0.00 0.00 0.00 0.00 0.00 0.00 0.00 0.00 0.00 0.00 0.00 0.00 0.00 0.01 0.00 0.01 0.02 0.02 0.02 0.04 0.06 0.07 0.06 0.06 0.05 0.05 0.03 0.03 0.03 0.03 0.03 0.03 0.03 0.04 0.03 0.04 0.03 0.02 0.02 0.04 0.07 0.07 0.05 0.04 0.06
0.00 0.00 0.00 0.00 0.00 0.00 0.00 0.00 0.00 0.00 0.00 0.00 0.00 0.00 0.00 0.00 0.00 0.01 0.01 0.02 0.02 0.02 0.02 0.02 0.03 0.03 0.03 0.04 0.06 0.08 0.05 0.04 0.03 0.04 0.03 0.04 0.07 0.04 0.03 0.03 0.03 0.02 0.02 0.04 0.07 0.06 0.04 0.04 0.06
0.00 0.00 0.00 0.00 0.00 0.00 0.00 0.00 0.00 0.00 0.00 0.00 0.00 0.00 0.00 0.00 0.00 0.01 0.01 0.02 0.02 0.02 0.02 0.03 0.02 0.02 0.02 0.03 0.07 0.09 0.07 0.06 0.05 0.05 0.04 0.05 0.06 0.05 0.03 0.03 0.04 0.03 0.03 0.04 0.05 0.04 0.03 0.03 0.03
0.00 0.00 0.00 0.00 0.00 0.00 0.00 0.00 0.00 0.00 0.00 0.00 0.00 0.00 0.00 0.00 0.01 0.01 0.02 0.02 0.01 0.01 0.02 0.03 0.02 0.02 0.02 0.04 0.06 0.07 0.07 0.08 0.06 0.05 0.05 0.05 0.04 0.04 0.03 0.04 0.05 0.05 0.04 0.03 0.02 0.01 0.01 0.02 0.04
0.00 0.00 0.00 0.00 0.00 0.00 0.00 0.00 0.00 0.00 0.00 0.00 0.00 0.00 0.00 0.00 0.01 0.01 0.02 0.02 0.01 0.01 0.01 0.02 0.03 0.04 0.05 0.06 0.05 0.06 0.06 0.06 0.06 0.06 0.05 0.05 0.04 0.04 0.04 0.05 0.04 0.04 0.05 0.05 0.03 0.02 0.02 0.03 0.03
0.00 0.00 0.00 0.00 0.00 0.00 0.00 0.00 0.00 0.00 0.00 0.00 0.00 0.00 0.00 0.00 0.01 0.02 0.02 0.02 0.02 0.01 0.02 0.03 0.04 0.06 0.06 0.06 0.05 0.05 0.06 0.05 0.04 0.05 0.05 0.05 0.05 0.04 0.04 0.05 0.04 0.03 0.03 0.03 0.04 0.03 0.04 0.05 0.03
0.00 0.00 0.00 0.00 0.00 0.00 0.00 0.00 0.00 0.00 0.00 0.00 0.00 0.00 0.00 0.01 0.01 0.02 0.03 0.03 0.02 0.02 0.03 0.04 0.05 0.08 0.07 0.05 0.05 0.06 0.08 0.06 0.04 0.05 0.05 0.05 0.05 0.05 0.05 0.04 0.05 0.04 0.04 0.04 0.05 0.04 0.04 0.04 0.04
0.00 0.00 0.00 0.00 0.00 0.00 0.00 0.00 0.00 0.00 0.00 0.00 0.00 0.00 0.00 0.01 0.01 0.01 0.03 0.06 0.06 0.05 0.05 0.06 0.06 0.09 0.08 0.07 0.04 0.05 0.06 0.05 0.05 0.05 0.05 0.05 0.06 0.06 0.05 0.05 0.05 0.05 0.05 0.06 0.08 0.06 0.03 0.03 0.04
0.00 0.00 0.00 0.00 0.00 0.00 0.00 0.00 0.00 0.00 0.00 0.01 0.02 0.01 0.00 0.00 0.01 0.02 0.03 0.05 0.07 0.05 0.05 0.07 0.07 0.08 0.08 0.08 0.05 0.05 0.04 0.04 0.05 0.06 0.06 0.04 0.04 0.04 0.04 0.04 0.05 0.06 0.06 0.06 0.08 0.05 0.04 0.04 0.05
0.00 0.00 0.00 0.00 0.00 0.00 0.00 0.00 0.00 0.00 0.00 0.02 0.04 0.01 0.00 0.00 0.00 0.01 0.01 0.03 0.05 0.05 0.06 0.09 0.09 0.09 0.09 0.07 0.05 0.06 0.05 0.05 0.07 0.07 0.07 0.05 0.04 0.04 0.05 0.05 0.06 0.06 0.07 0.08 0.06 0.06 0.06 0.05 0.06
0.00 0.00 0.00 0.00 0.00 0.00 0.00 0.00 0.00 0.00 0.00 0.04 0.03 0.01 0.00 0.00 0.00 0.01 0.01 0.01 0.03 0.06 0.09 0.11 0.10 0.13 0.13 0.08 0.06 0.06 0.05 0.06 0.08 0.08 0.09 0.07 0.07 0.07 0.08 0.06 0.06 0.07 0.08 0.09 0.08 0.09 0.08 0.05 0.06
0.00 0.00 0.00 0.00 0.00 0.00 0.00 0.00 0.00 0.00 0.00 0.01 0.00 0.00 0.01 0.01 0.00 0.01 0.01 0.02 0.06 0.09 0.14 0.16 0.15 0.17 0.16 0.09 0.06 0.06 0.06 0.06 0.07 0.06 0.05 0.06 0.07 0.08 0.11 0.10 0.10 0.10 0.09 0.09 0.07 0.07 0.08 0.05 0.05
0.00 0.00 0.00 0.00 0.00 0.00 0.00 0.00 0.00 0.00 0.00 0.00 0.00 0.00 0.00 0.01 0.01 0.01 0.02 0.05 0.08 0.12 0.16 0.20 0.23 0.21 0.18 0.11 0.07 0.08 0.07 0.06 0.08 0.07 0.05 0.06 0.07 0.07 0.08 0.11 0.09 0.09 0.10 0.10 0.09 0.09 0.08 0.05 0.04
0.00 0.00 0.00 0.00 0.00 0.00 0.00 0.00 0.00 0.00 0.00 0.00 0.00 0.00 0.01 0.00 0.01 0.01 0.02 0.08 0.17 0.21 0.24 0.23 0.23 0.20 0.18 0.13 0.09 0.10 0.10 0.09 0.08 0.08 0.07 0.07 0.08 0.08 0.08 0.08 0.08 0.08 0.07 0.09 0.10 0.10 0.10 0.10 0.07
0.00 0.00 0.00 0.00 0.00 0.00 0.00 0.00 0.00 0.00 0.00 0.00 0.00 0.00 0.01 0.01 0.01 0.01 0.02 0.07 0.12 0.20 0.21 0.16 0.15 0.14 0.13 0.11 0.10 0.08 0.08 0.08 0.09 0.09 0.09 0.10 0.10 0.09 0.09 0.08 0.09 0.07 0.05 0.08 0.07 0.07 0.09 0.10 0.08
0.00 0.00 0.00 0.00 0.00 0.00 0.00 0.00 0.00 0.00 0.00 0.00 0.00 0.00 0.01 0.01 0.01 0.01 0.03 0.05 0.09 0.14 0.11 0.08 0.08 0.11 0.08 0.09 0.10 0.09 0.08 0.09 0.10 0.10 0.11 0.11 0.10 0.10 0.08 0.06 0.07 0.07 0.06 0.07 0.07 0.06 0.07 0.07 0.07
0.00 0.00 0.00 0.00 0.00 0.00 0.00 0.00 0.00 0.00 0.00 0.00 0.00 0.00 0.00 0.00 0.00 0.01 0.02 0.03 0.05 0.08 0.07 0.07 0.07 0.07 0.07 0.07 0.07 0.09 0.08 0.10 0.12 0.13 0.09 0.09 0.10 0.10 0.08 0.06 0.08 0.07 0.06 0.07 0.07 0.07 0.07 0.09 0.09
0.00 0.00 0.00 0.00 0.00 0.00 0.00 0.00 0.00 0.00 0.00 0.00 0.00 0.00 0.01 0.01 0.00 0.01 0.01 0.02 0.02 0.06 0.09 0.07 0.06 0.07 0.07 0.06 0.05 0.06 0.09 0.11 0.10 0.12 0.12 0.11 0.08 0.07 0.10 0.07 0.09 0.07 0.07 0.08 0.09 0.10 0.08 0.09 0.10
0.00 0.00 0.00 0.00 0.00 0.00 0.00 0.00 0.00 0.00 0.00 0.00 0.00 0.00 0.01 0.01 0.00 0.00 0.01 0.01 0.02 0.03 0.06 0.04 0.04 0.05 0.05 0.05 0.05 0.06 0.09 0.11 0.10 0.09 0.12 0.11 0.08 0.08 0.10 0.08 0.07 0.07 0.07 0.07 0.10 0.09 0.08 0.07 0.07
0.00 0.00 0.00 0.00 0.00 0.00 0.00 0.00 0.00 0.00 0.00 0.00 0.00 0.00 0.00 0.01 0.01 0.01 0.01 0.01 0.02 0.02 0.02 0.02 0.03 0.03 0.04 0.05 0.06 0.07 0.07 0.08 0.10 0.09 0.11 0.11 0.08 0.07 0.08 0.08 0.07 0.07 0.07 0.07 0.09 0.08 0.08 0.08 0.06
0.00 0.00 0.00 0.00 0.00 0.00 0.00 0.00 0.00 0.00 0.00 0.00 0.00 0.00 0.01 0.01 0.00 0.00 0.00 0.01 0.02 0.02 0.03 0.03 0.03 0.04 0.05 0.06 0.06 0.04 0.05 0.06 0.09 0.11 0.10 0.11 0.10 0.08 0.08 0.07 0.07 0.07 0.05 0.05 0.08 0.07 0.07 0.07 0.06
0.00 0.00 0.00 0.00 0.00 0.00 0.00 0.00 0.00 0.00 0.00 0.00 0.00 0.00 0.01 0.00 0.00 0.00 0.00 0.01 0.02 0.02 0.02 0.02 0.03 0.03 0.04 0.05 0.05 0.03 0.04 0.04 0.04 0.07 0.06 0.06 0.07 0.07 0.07 0.07 0.09 0.08 0.07 0.06 0.06 0.05 0.06 0.08 0.10
0.00 0.00 0.00 0.00 0.00 0.00 0.00 0.00 0.00 0.00 0.00 0.00 0.00 0.00 0.00 0.00 0.00 0.00 0.00 0.01 0.01 0.01 0.01 0.01 0.02 0.03 0.03 0.04 0.04 0.03 0.04 0.04 0.03 0.04 0.05 0.06 0.07 0.06 0.06 0.06 0.07 0.06 0.05 0.07 0.07 0.06 0.07 0.09 0.10
MSLP
1009.72 1010.11 1010.64 1011.22 1011.76 1012.18 1012.45 1012.57 1012.58 1012.54 1012.52 1012.56 1012.67 1012.84 1013.03 1013.18 1013.27 1013.28 1013.25 1013.24 1013.30 1013.49 1013.83 1014.30 1014.84 1015.38 1015.83 1016.14 1016.28 1016.27 1016.17 1016.06 1016.00 1016.03 1016.17 1016.39 1016.65 1016.88 1017.06 1017.15 1017.17 1017.15 1017.13 1017.15 1017.21 1017.32 1017.45 1017.57 1017.65
1009.76 1010.27 1010.89 1011.52 1012.07 1012.46 1012.67 1012.70 1012.61 1012.47 1012.35 1012.32 1012.37 1012.50 1012.66 1012.81 1012.91 1012.95 1012.96 1013.00 1013.12 1013.38 1013.79 1014.33 1014.94 1015.54 1016.05 1016.40 1016.58 1016.60 1016.53 1016.42 1016.35 1016.36 1016.46 1016.64 1016.84 1017.03 1017.17 1017.23 1017.24 1017.23 1017.23 1017.28 1017.39 1017.55 1017.72 1017.87 1017.97
1009.89 1010.49 1011.18 1011.84 1012.37 1012.72 1012.85 1012.79 1012.61 1012.38 1012.20 1012.11 1012.13 1012.24 1012.40 1012.55 1012.66 1012.72 1012.75 1012.82 1012.97 1013.25 1013.70 1014.28 1014.94 1015.59 1016.16 1016.58 1016.82 1016.90 1016.87 1016.79 1016.74 1016.74 1016.82 1016.96 1017.11 1017.25 1017.33 1017.37 1017.37 1017.37 1017.41 1017.50 1017.66 1017.87 1018.08 1018.26 1018.37
1010.10 1010.77 1011.48 1012.13 1012.62 1012.91 1012.96 1012.83 1012.58 1012.30 1012.08 1011.97 1011.99 1012.11 1012.28 1012.46 1012.58 1012.65 1012.69 1012.75 1012.90 1013.19 1013.63 1014.22 1014.90 1015.59 1016.20 1016.67 1016.98 1017.13 1017.17 1017.14 1017.12 1017.13 1017.20 1017.30 1017.42 1017.51 1017.56 1017.57 1017.57 1017.59 1017.66 1017.80 1018.01 1018.26 1018.51 1018.71 1018.81
1010.37 1011.06 1011.75 1012.36 1012.79 1013.00 1012.98 1012.79 1012.49 1012.20 1011.98 1011.90 1011.96 1012.12 1012.34 1012.54 1012.69 1012.77 1012.81 1012.85 1012.98 1013.24 1013.66 1014.22 1014.89 1015.57 1016.21 1016.72 1017.08 1017.29 1017.38 1017.41 1017.43 1017.47 1017.54 1017.63 1017.72 1017.79 1017.82 1017.82 1017.83 1017.87 1017.97 1018.15 1018.41 1018.69 1018.96 1019.16 1019.26
1010.68 1011.33 1011.96 1012.48 1012.83 1012.95 1012.86 1012.63 1012.32 1012.05 1011.88 1011.86 1011.99 1012.23 1012.51 1012.77 1012.95 1013.05 1013.09 1013.13 1013.23 1013.44 1013.81 1014.33 1014.95 1015.60 1016.21 1016.73 1017.11 1017.35 1017.49 1017.57 1017.62 1017.69 1017.78 1017.88 1017.97 1018.04 1018.07 1018.08 1018.10 1018.16 1018.30 1018.51 1018.79 1019.09 1019.36 1019.56 1019.64
1010.97 1011.54 1012.07 1012.48 1012.71 1012.73 1012.59 1012.32 1012.03 1011.80 1011.71 1011.78 1012.01 1012.35 1012.72 1013.05 1013.30 1013.44 1013.50 1013.54 1013.61 1013.79 1014.10 1014.55 1015.10 1015.69 1016.25 1016.73 1017.09 1017.34 1017.50 1017.60 1017.69 1017.79 1017.91 1018.03 1018.14 1018.23 1018.28 1018.31 1018.36 1018.44 1018.59 1018.82 1019.10 1019.40 1019.67 1019.85 1019.92
1011.22 1011.68 1012.08 1012.34 1012.44 1012.37 1012.16 1011.88 1011.61 1011.45 1011.44 1011.62 1011.96 1012.41 1012.88 1013.31 1013.64 1013.84 1013.94 1014.00 1014.08 1014.23 1014.49 1014.87 1015.35 1015.85 1016.34 1016.75 1017.06 1017.28 1017.43 1017.53 1017.65 1017.77 1017.93 1018.09 1018.24 1018.36 1018.44 1018.50 1018.57 1018.66 1018.82 1019.04 1019.32 1019.60 1019.85 1020.02 1020.08
1011.42 1011.75 1012.00 1012.11 1012.08 1011.91 1011.64 1011.34 1011.09 1010.99 1011.07 1011.35 1011.80 1012.36 1012.94 1013.47 1013.89 1014.17 1014.34 1014.45 1014.55 1014.69 1014.93 1015.26 1015.66 1016.08 1016.47 1016.80 1017.04 1017.21 1017.33 1017.43 1017.55 1017.70 1017.89 1018.09 1018.28 1018.44 1018.56 1018.65 1018.73 1018.84 1018.99 1019.19 1019.44 1019.70 1019.92 1020.07 1020.13
1011.57 1011.78 1011.88 1011.85 1011.69 1011.42 1011.09 1010.77 1010.55 1010.49 1010.64 1011.00 1011.54 1012.19 1012.86 1013.49 1014.00 1014.37 1014.63 1014.81 1014.96 1015.13 1015.36 1015.66 1016.00 1016.34 1016.65 1016.90 1017.07 1017.18 1017.26 1017.34 1017.46 1017.63 1017.84 1018.08 1018.32 1018.51 1018.67 1018.78 1018.87 1018.97 1019.10 1019.28 1019.50 1019.72 1019.92 1020.06 1020.12
1011.71 1011.80 1011.78 1011.63 1011.36 1011.00 1010.61 1010.27 1010.04 1010.01 1010.20 1010.61 1011.21 1011.92 1012.66 1013.37 1013.97 1014.43 1014.78 1015.04 1015.26 1015.48 1015.74 1016.03 1016.34 1016.63 1016.87 1017.05 1017.16 1017.22 1017.26 1017.32 1017.43 1017.61 1017.85 1018.11 1018.38 1018.61 1018.79 1018.92 1019.01 1019.10 1019.21 1019.36 1019.54 1019.73 1019.91 1020.05 1020.11
1011.88 1011.88 1011.76 1011.50 1011.14 1010.71 1010.27 1009.89 1009.66 1009.62 1009.82 1010.25 1010.86 1011.60 1012.39 1013.15 1013.81 1014.36 1014.80 1015.14 1015.44 1015.73 1016.02 1016.33 1016.63 1016.89 1017.10 1017.24 1017.30 1017.32 1017.33 1017.38 1017.49 1017.67 1017.92 1018.20 1018.49 1018.74 1018.94 1019.07 1019.17 1019.24 1019.33 1019.45 1019.60 1019.77 1019.94 1020.07 1020.15
1012.10 1012.04 1011.84 1011.51 1011.08 1010.59 1010.11 1009.70 1009.44 1009.38 1009.56 1009.97 1010.57 1011.30 1012.10 1012.88 1013.59 1014.20 1014.70 1015.13 1015.50 1015.85 1016.19 1016.53 1016.84 1017.11 1017.30 1017.42 1017.47 1017.47 1017.47 1017.50 1017.61 1017.79 1018.04 1018.34 1018.64 1018.90 1019.11 1019.25 1019.34 1019.40 1019.47 1019.57 1019.70 1019.85 1020.02 1020.16 1020.26
1012.40 1012.29 1012.04 1011.67 1011.19 1010.66 1010.14 1009.70 1009.40 1009.31 1009.44 1009.80 1010.36 1011.06 1011.83 1012.61 1013.33 1013.98 1014.54 1015.02 1015.45 1015.86 1016.24 1016.62 1016.95 1017.24 1017.44 1017.57 1017.62 1017.62 1017.62 1017.65 1017.75 1017.93 1018.18 1018.48 1018.78 1019.04 1019.26 1019.41 1019.50 1019.56 1019.62 1019.70 1019.83 1019.98 1020.15 1020.30 1020.43
1012.75 1012.62 1012.34 1011.93 1011.43 1010.88 1010.33 1009.85 1009.51 1009.36 1009.44 1009.73 1010.23 1010.87 1011.61 1012.36 1013.08 1013.74 1014.33 1014.85 1015.32 1015.76 1016.18 1016.59 1016.95 1017.26 1017.49 1017.63 1017.71 1017.73 1017.74 1017.77 1017.87 1018.04 1018.28 1018.57 1018.87 1019.14 1019.36 1019.52 1019.62 1019.68 1019.75 1019.83 1019.95 1020.11 1020.29 1020.46 1020.61
1013.14 1012.98 1012.68 1012.26 1011.75 1011.19 1010.62 1010.11 1009.72 1009.52 1009.52 1009.74 1010.16 1010.74 1011.42 1012.14 1012.84 1013.50 1014.09 1014.63 1015.12 1015.58 1016.03 1016.45 1016.84 1017.17 1017.43 1017.61 1017.71 1017.76 1017.78 1017.83 1017.92 1018.08 1018.31 1018.58 1018.87 1019.15 1019.38 1019.55 1019.67 1019.75 1019.83 1019.92 1020.04 1020.21 1020.39 1020.58 1020.75
1013.51 1013.33 1013.03 1012.61 1012.10 1011.54 1010.96 1010.42 1009.99 1009.72 1009.64 1009.78 1010.12 1010.63 1011.24 1011.92 1012.60 1013.25 1013.84 1014.38 1014.88 1015.35 1015.80 1016.23 1016.63 1016.99 1017.28 1017.49 1017.62 1017.70 1017.75 1017.80 1017.89 1018.03 1018.24 1018.50 1018.78 1019.06 1019.31 1019.50 1019.64 1019.75 1019.84 1019.95 1020.07 1020.24 1020.43 1020.62 1020.80
1013.83 1013.64 1013.35 1012.95 1012.46 1011.90 1011.32 1010.75 1010.27 1009.92 1009.76 1009.81 1010.06 1010.49 1011.05 1011.69 1012.35 1012.98 1013.57 1014.11 1014.61 1015.08 1015.53 1015.96 1016.37 1016.75 1017.07 1017.31 1017.48 1017.59 1017.65 1017.71 1017.79 1017.92 1018.11 1018.35 1018.62 1018.90 1019.16 1019.38 1019.55 1019.69 1019.80 1019.91 1020.04 1020.19 1020.37 1020.57 1020.75
1014.06 1013.88 1013.61 1013.26 1012.81 1012.28 1011.69 1011.10 1010.56 1010.13 1009.88 1009.82 1009.98 1010.33 1010.83 1011.43 1012.06 1012.69 1013.29 1013.83 1014.33 1014.79 1015.24 1015.68 1016.10 1016.49 1016.83 1017.11 1017.32 1017.46 1017.54 1017.61 1017.68 1017.79 1017.95 1018.17 1018.42 1018.70 1018.97 1019.21 1019.42 1019.58 1019.71 1019.82 1019.94 1020.09 1020.24 1020.42 1020.60
1014.19 1014.05 1013.84 1013.56 1013.17 1012.68 1012.11 1011.49 1010.88 1010.36 1009.99 1009.82 1009.87 1010.13 1010.57 1011.12 1011.75 1012.38 1012.98 1013.54 1014.05 1014.52 1014.97 1015.41 1015.84 1016.25 1016.62 1016.93 1017.17 1017.34 1017.45 1017.52 1017.58 1017.67 1017.80 1017.99 1018.23 1018.49 1018.77 1019.03 1019.25 1019.44 1019.58 1019.70 1019.81 1019.93 1020.06 1020.21 1020.37
1014.22 1014.16 1014.05 1013.87 1013.58 1013.15 1012.59 1011.94 1011.26 1010.63 1010.13 1009.83 1009.75 1009.91 1010.28 1010.80 1011.41 1012.05 1012.68 1013.25 1013.78 1014.27 1014.72 1015.17 1015.61 1016.04 1016.43 1016.78 1017.05 1017.26 1017.39 1017.46 1017.52 1017.58 1017.68 1017.84 1018.04 1018.29 1018.57 1018.83 1019.07 1019.27 1019.43 1019.55 1019.65 1019.75 1019.85 1019.97 1020.10
1014.17 1014.23 1014.27 1014.22 1014.04 1013.68 1013.15 1012.47 1011.71 1010.96 1010.32 1009.87 1009.66 1009.71 1010.00 1010.47 1011.07 1011.73 1012.38 1012.98 1013.53 1014.03 1014.50 1014.96 1015.41 1015.84 1016.26 1016.64 1016.95 1017.18 1017.34 1017.43 1017.47 1017.52 1017.58 1017.69 1017.86 1018.08 1018.33 1018.60 1018.85 1019.06 1019.23 1019.36 1019.45 1019.53 1019.61 1019.70 1019.82
1014.08 1014.30 1014.50 1014.61 1014.55 1014.28 1013.77 1013.05 1012.21 1011.33 1010.54 1009.94 1009.59 1009.53 1009.74 1010.17 1010.76 1011.43 1012.10 1012.73 1013.31 1013.82 1014.30 1014.75 1015.20 1015.65 1016.08 1016.48 1016.82 1017.08 1017.26 1017.36 1017.40 1017.42 1017.45 1017.52 1017.64 1017.82 1018.04 1018.29 1018.54 1018.76 1018.94 1019.08 1019.18 1019.25 1019.33 1019.41 1019.51
1013.97 1014.36 1014.73 1015.00 1015.07 1014.87 1014.39 1013.64 1012.71 1011.72 1010.79 1010.04 1009.57 1009.40 1009.53 1009.92 1010.50 1011.17 1011.86 1012.51 1013.10 1013.62 1014.09 1014.53 1014.97 1015.41 1015.84 1016.25 1016.61 1016.89 1017.09 1017.21 1017.25 1017.25 1017.24 1017.27 1017.34 1017.47 1017.66 1017.88 1018.12 1018.34 1018.53 1018.68 1018.79 1018.88 1018.96 1019.05 1019.16
1013.87 1014.41 1014.94 1015.35 1015.52 1015.39 1014.92 1014.14 1013.15 1012.05 1011.01 1010.15 1009.56 1009.30 1009.38 1009.73 1010.29 1010.97 1011.67 1012.33 1012.92 1013.43 1013.87 1014.29 1014.69 1015.10 1015.52 1015.92 1016.29 1016.59 1016.81 1016.93 1016.98 1016.97 1016.94 1016.92 1016.94 1017.02 1017.16 1017.35 1017.56 1017.77 1017.97 1018.13 1018.26 1018.37 1018.47 1018.58 1018.71
1013.78 1014.44 1015.08 1015.58 1015.83 1015.74 1015.27 1014.48 1013.43 1012.27 1011.14 1010.20 1009.55 1009.23 1009.26 1009.60 1010.15 1010.82 1011.52 1012.18 1012.75 1013.23 1013.64 1014.01 1014.36 1014.73 1015.12 1015.50 1015.87 1016.18 1016.41 1016.55 1016.60 1016.59 1016.54 1016.49 1016.47 1016.50 1016.59 1016.73 1016.90 1017.09 1017.27 1017.44 1017.58 1017.71 1017.84 1017.98 1018.14
1013.68 1014.40 1015.10 1015.65 1015.92 1015.84 1015.37 1014.56 1013.49 1012.30 1011.15 1010.17 1009.49 1009.16 1009.18 1009.51 1010.06 1010.73 1011.42 1012.06 1012.60 1013.04 1013.41 1013.72 1014.02 1014.33 1014.68 1015.04 1015.39 1015.70 1015.95 1016.11 1016.17 1016.16 1016.11 1016.03 1015.98 1015.96 1015.99 1016.08 1016.21 1016.36 1016.51 1016.66 1016.80 1016.93 1017.07 1017.23 1017.43
1013.58 1014.29 1014.97 1015.49 1015.74 1015.64 1015.17 1014.36 1013.30 1012.12 1010.99 1010.05 1009.39 1009.08 1009.11 1009.45 1010.00 1010.66 1011.34 1011.95 1012.47 1012.87 1013.18 1013.44 1013.69 1013.96 1014.26 1014.59 1014.93 1015.25 1015.51 1015.69 1015.77 1015.78 1015.73 1015.64 1015.56 1015.50 1015.48 1015.51 1015.58 1015.67 1015.77 1015.88 1015.98 1016.09 1016.22 1016.38 1016.59
1013.45 1014.09 1014.68 1015.12 1015.31 1015.17 1014.68 1013.89 1012.87 1011.76 1010.70 1009.82 1009.23 1008.97 1009.04 1009.40 1009.95 1010.60 1011.26 1011.85 1012.33 1012.71 1012.99 1013.21 1013.43 1013.67 1013.95 1014.27 1014.60 1014.92 1015.20 1015.40 1015.51 1015.54 1015.50 1015.41 1015.32 1015.22 1015.16 1015.12 1015.12 1015.14 1015.16 1015.20 1015.23 1015.29 1015.37 1015.50 1015.69
1013.30 1013.80 1014.27 1014.59 1014.68 1014.49 1013.99 1013.23 1012.28 1011.27 1010.32 1009.55 1009.05 1008.85 1008.97 1009.33 1009.88 1010.52 1011.15 1011.72 1012.19 1012.55 1012.82 1013.05 1013.27 1013.51 1013.79 1014.12 1014.47 1014.80 1015.10 1015.32 1015.46 1015.51 1015.48 1015.41 1015.30 1015.18 1015.08 1014.98 1014.91 1014.84 1014.77 1014.71 1014.65 1014.62 1014.62 1014.69 1014.82
Thickness
5834 5840 5841 5836 5828 5815 5799 5805 5814 5812 5811 5817 5817 5812 5806 5800 5793 5781 5800 5807 5803 5797 5789 5781 5778 5776 5774 5773 5771 5770 5768 5766 5765 5763 5762 5761 5760 5759 5758 5757 5756 5756 5755 5754 5753 5752 5751 5750 5748
5843 5843 5839 5836 5822 5798 5794 5810 5810 5811 5816 5820 5817 5812 5806 5799 5801 5798 5802 5803 5801 5797 5790 5783 5776 5774 5772 5771 5769 5768 5766 5764 5763 5761 5760 5759 5758 5757 5756 5756 5755 5754 5753 5752 5751 5750 5749 5748 5746
5845 5845 5838 5834 5815 5802 5799 5812 5813 5818 5823 5819 5813 5813 5805 5796 5798 5799 5803 5803 5801 5795 5789 5780 5775 5773 5771 5769 5767 5766 5764 5762 5761 5759 5759 5758 5757 5756 5754 5754 5753 5752 5751 5750 5749 5748 5746 5745 5744
5846 5843 5841 5828 5810 5813 5815 5818 5821 5819 5820 5820 5815 5805 5804 5804 5805 5806 5804 5802 5799 5793 5787 5779 5773 5771 5768 5767 5765 5763 5762 5760 5759 5758 5757 5756 5755 5754 5753 5752 5751 5750 5749 5748 5746 5745 5744 5743 5742
5848 5842 5829 5818 5813 5819 5826 5827 5826 5819 5816 5817 5816 5803 5797 5803 5809 5807 5802 5800 5796 5792 5787 5778 5771 5769 5767 5765 5763 5761 5760 5758 5757 5756 5755 5754 5753 5752 5751 5750 5749 5748 5746 5745 5744 5743 5742 5741 5739
5844 5842 5822 5811 5813 5822 5830 5833 5829 5821 5817 5817 5814 5804 5795 5803 5803 5802 5801 5798 5795 5791 5785 5776 5769 5767 5765 5763 5761 5759 5758 5756 5755 5754 5753 5752 5751 5750 5749 5748 5747 5746 5744 5743 5742 5740 5739 5738 5737
5839 5834 5819 5817 5815 5818 5827 5837 5830 5823 5817 5817 5819 5805 5796 5799 5802 5801 5799 5796 5793 5789 5784 5776 5771 5765 5762 5760 5759 5757 5756 5754 5753 5752 5751 5750 5749 5748 5747 5746 5745 5743 5742 5741 5740 5739 5738 5736 5735
5848 5839 5824 5821 5817 5818 5833 5836 5835 5828 5821 5827 5824 5808 5798 5799 5802 5799 5795 5792 5789 5786 5782 5776 5773 5768 5764 5760 5757 5755 5753 5752 5751 5750 5749 5748 5747 5746 5745 5744 5743 5742 5741 5740 5739 5737 5736 5735 5734
5849 5834 5821 5821 5818 5824 5836 5832 5833 5838 5829 5825 5824 5820 5817 5807 5801 5794 5789 5785 5781 5780 5779 5777 5773 5768 5765 5762 5757 5754 5751 5750 5749 5749 5747 5747 5749 5748 5746 5744 5741 5740 5739 5738 5737 5736 5735 5734 5733
5842 5827 5823 5832 5833 5832 5835 5833 5832 5830 5822 5818 5814 5813 5812 5804 5797 5790 5785 5780 5777 5774 5774 5774 5771 5767 5765 5762 5756 5754 5753 5751 5751 5750 5749 5748 5748 5748 5747 5741 5740 5739 5738 5737 5736 5736 5735 5736 5737
5838 5829 5833 5838 5842 5840 5836 5836 5839 5829 5820 5822 5816 5809 5806 5801 5795 5791 5786 5783 5779 5775 5772 5770 5768 5765 5763 5759 5757 5754 5753 5750 5750 5749 5747 5747 5747 5747 5745 5743 5740 5739 5739 5740 5737 5738 5740 5740 5738
5833 5834 5836 5839 5844 5840 5837 5838 5836 5832 5828 5834 5830 5819 5808 5801 5795 5791 5787 5783 5780 5774 5770 5769 5765 5762 5760 5758 5756 5753 5752 5750 5750 5747 5746 5746 5747 5746 5745 5743 5743 5742 5741 5740 5741 5740 5739 5738 5737
5829 5831 5839 5844 5845 5844 5840 5836 5833 5831 5836 5836 5829 5818 5809 5803 5797 5793 5789 5784 5778 5772 5769 5767 5763 5759 5756 5754 5753 5752 5750 5750 5749 5746 5745 5745 5745 5745 5744 5743 5742 5743 5742 5740 5739 5740 5738 5737 5736
5831 5834 5838 5842 5843 5842 5835 5835 5833 5829 5836 5830 5822 5815 5810 5803 5798 5792 5786 5780 5776 5772 5768 5765 5760 5757 5753 5751 5750 5749 5749 5747 5748 5746 5746 5744 5744 5743 5742 5741 5740 5742 5741 5741 5739 5739 5738 5738 5737
5835 5829 5833 5838 5839 5840 5836 5825 5828 5833 5833 5824 5818 5813 5808 5804 5799 5792 5787 5781 5776 5771 5768 5764 5760 5756 5752 5750 5749 5748 5747 5747 5747 5746 5744 5742 5743 5741 5741 5741 5740 5741 5740 5738 5738 5738 5739 5738 5737
5830 5823 5818 5830 5835 5837 5827 5816 5828 5835 5829 5820 5817 5812 5805 5801 5799 5794 5788 5782 5777 5772 5767 5763 5760 5755 5752 5750 5748 5749 5747 5746 5745 5744 5743 5742 5741 5740 5740 5741 5741 5739 5739 5739 5738 5739 5740 5739 5738
5818 5812 5813 5821 5833 5833 5826 5819 5829 5834 5828 5819 5815 5810 5804 5799 5796 5793 5788 5782 5777 5772 5767 5762 5759 5755 5752 5750 5748 5747 5746 5744 5744 5743 5742 5741 5740 5740 5739 5741 5740 5738 5739 5739 5740 5740 5740 5739 5738
5806 5809 5809 5813 5826 5826 5822 5823 5828 5831 5826 5820 5815 5810 5803 5799 5796 5793 5788 5782 5776 5771 5767 5761 5757 5754 5751 5750 5747 5746 5745 5744 5744 5743 5742 5741 5740 5739 5739 5740 5739 5739 5739 5739 5739 5737 5737 5738 5737
5811 5807 5806 5813 5824 5821 5820 5820 5825 5827 5824 5818 5814 5810 5804 5800 5799 5794 5788 5782 5775 5769 5764 5760 5757 5754 5751 5749 5748 5746 5745 5745 5744 5743 5742 5741 5740 5740 5739 5741 5739 5739 5739 5739 5740 5739 5737 5737 5739
5806 5802 5806 5813 5821 5817 5817 5819 5827 5825 5821 5819 5815 5811 5806 5801 5796 5790 5786 5780 5774 5768 5764 5759 5757 5754 5752 5751 5749 5748 5747 5746 5745 5744 5742 5742 5741 5741 5741 5740 5740 5740 5739 5738 5738 5737 5738 5739 5739
5802 5802 5805 5804 5813 5819 5814 5814 5818 5823 5823 5819 5818 5815 5811 5804 5796 5789 5785 5779 5774 5769 5764 5760 5756 5754 5753 5751 5750 5748 5745 5744 5744 5743 5743 5743 5742 5742 5741 5741 5741 5740 5740 5739 5738 5737 5736 5735 5738
5796 5810 5807 5804 5802 5806 5806 5798 5813 5819 5816 5815 5814 5813 5810 5805 5800 5792 5785 5780 5775 5771 5767 5762 5757 5754 5753 5752 5750 5748 5745 5744 5745 5745 5745 5744 5742 5742 5742 5741 5740 5740 5741 5740 5740 5740 5738 5736 5735
5804 5810 5807 5805 5802 5799 5805 5796 5812 5817 5811 5813 5814 5813 5811 5806 5800 5792 5787 5782 5777 5773 5768 5763 5758 5756 5754 5753 5751 5748 5747 5747 5747 5746 5745 5743 5743 5742 5742 5742 5741 5740 5741 5740 5740 5740 5738 5738 5737
5806 5803 5801 5803 5803 5784 5795 5789 5797 5813 5811 5813 5814 5812 5809 5805 5799 5793 5788 5782 5777 5774 5768 5763 5759 5757 5755 5753 5752 5749 5747 5746 5746 5744 5744 5744 5744 5743 5743 5742 5741 5741 5741 5740 5739 5739 5738 5738 5737
5799 5789 5779 5777 5780 5784 5796 5788 5798 5813 5817 5816 5813 5810 5808 5804 5798 5791 5786 5781 5776 5773 5769 5765 5761 5758 5757 5755 5752 5751 5749 5747 5746 5745 5745 5744 5745 5744 5743 5744 5741 5741 5740 5739 5739 5738 5738 5738 5736
5796 5796 5779 5769 5776 5788 5788 5787 5806 5817 5819 5819 5817 5813 5808 5803 5799 5793 5787 5782 5776 5773 5770 5766 5763 5759 5758 5756 5754 5752 5750 5750 5750 5748 5748 5746 5746 5746 5744 5742 5741 5740 5739 5739 5738 5739 5738 5737 5736
5791 5794 5811 5793 5784 5778 5789 5796 5808 5815 5813 5812 5811 5808 5804 5801 5797 5793 5788 5782 5777 5773 5770 5768 5764 5761 5759 5757 5755 5752 5751 5751 5751 5749 5747 5747 5746 5745 5744 5742 5741 5740 5738 5738 5737 5738 5736 5735 5735
5802 5803 5792 5785 5766 5766 5780 5786 5795 5802 5803 5805 5805 5803 5802 5800 5796 5792 5788 5783 5778 5775 5772 5769 5766 5762 5760 5758 5757 5755 5753 5751 5750 5748 5746 5745 5744 5743 5742 5741 5740 5739 5738 5737 5736 5735 5735 5733 5731
5784 5786 5790 5790 5788 5772 5772 5787 5810 5807 5807 5805 5805 5804 5802 5800 5796 5792 5789 5785 5781 5777 5773 5768 5764 5762 5760 5758 5756 5755 5753 5751 5749 5747 5745 5743 5742 5740 5739 5739 5738 5737 5736 5735 5733 5733 5732 5730 5728
5796 5793 5788 5776 5772 5778 5780 5791 5815 5814 5814 5811 5807 5804 5803 5801 5798 5793 5789 5784 5780 5777 5773 5769 5765 5761 5759 5757 5755 5752 5751 5749 5747 5746 5744 5742 5739 5738 5737 5736 5735 5734 5733 5732 5731 5729 5728 5727 5724